Regional Weather Roundup
Issued by NWS Northern Indiana

Home | Current Version | Previous Version | Text Only | Print | Product List | Glossary Off
Versions: 1 2 3 4 5 6 7 8 9 10 11 12 13 14 15 16 17 18 19 20 21 22 23 24 25 26 27 28 29 30 31 32 33 34 35 36 37 38 39 40 41 42 43 44 45 46 47 48 49 50

000
ASUS43 KIWX 261500
RWRIWX

KIWX WEATHER ROUNDUP
NATIONAL WEATHER SERVICE NORTHERN INDIANA
1100 AM EDT FRI MAY 26 2017

NOTE: "FAIR" INDICATES FEW OR NO CLOUDS BELOW 12,000 FEET WITH NO
SIGNIFICANT WEATHER AND/OR OBSTRUCTIONS TO VISIBILITY.

* THESE STATIONS ARE NOT UNDER NWS QUALITY CONTROL. THEY ALSO MAY NOT
  REPORT WEATHER SUCH AS PRECIPITATION OR FOG.

INZ001>027-261600-
NORTHERN INDIANA

CITY           SKY/WX    TMP DP  RH WIND       PRES   REMARKS
GARY*          MOSUNNY   68  54  60 VRB3      29.89R
MICHIGAN CITY* SUNNY     63  54  72 CALM      29.91R
SOUTH BEND     SUNNY     64  54  69 MISG      29.89R
ELKHART*       SUNNY     63  54  72 W3        29.89R
GOSHEN         SUNNY     64  52  64 W5        29.89R
MONTICELLO*    MOSUNNY   64  54  69 CALM      29.92R
ANGOLA*        PTSUNNY   61  52  72 NW3       29.87F
FORT WAYNE     MOSUNNY   64  54  69 W6        29.90S
PERU/GRISSOM   MOSUNNY   64  56  75 W6        29.91R

$$
INZ028>050-261600-
CENTRAL INDIANA

CITY           SKY/WX    TMP DP  RH WIND       PRES   REMARKS
LAFAYETTE      CLOUDY    67  60  78 SW3       29.90S
KOKOMO*        SUNNY     65  55  70 SW3       29.93R
MUNCIE*        MOSUNNY   66  55  67 W8        29.92R
INDIANAPOLIS   PTSUNNY   70  59  68 SW6       29.92R

$$
MIZ043>046-050>051-056>058-064>065-071>073-077>080-261600-
SOUTHWEST LOWER MICHIGAN

CITY           SKY/WX    TMP DP  RH WIND       PRES   REMARKS
BATTLE CREEK   CLOUDY    56  53  90 CALM      29.88S
BENTON HARBOR  SUNNY     63  53  70 W6        29.88R
COLDWATER*     CLOUDY    58  55  88 CALM      29.88S
HILLSDALE*     CLOUDY    61  52  72 NW7       29.87R
HOLLAND        MOSUNNY   59  53  80 CALM      29.87S
GRAND RAPIDS   PTSUNNY   61  55  81 SW8       29.86R
KALAMAZOO      PTSUNNY   61  52  72 VRB3      29.87F
STURGIS*       PTSUNNY   60  54  79 NW3       29.87F
THREE RIVERS*  FAIR      61  53  75 CALM      29.88S

$$
OHZ001>008-015>018-024>025-261600-
NORTHWEST OHIO

CITY           SKY/WX    TMP DP  RH WIND       PRES   REMARKS
DEFIANCE       PTSUNNY   59  53  80 W6        29.89R
FINDLAY        CLOUDY    60  52  74 W12       29.88R
TOLEDO EXPRESS CLOUDY    61  52  72 NW9       29.87R
TOLEDO METCALF CLOUDY    62  53  72 NW9       29.87R
LIMA           PTSUNNY   58  54  86 NW7       29.90R

$$
AND FOR LAKE MICHIGAN COASTAL AND OPEN LAKE BUOY OBSERVATIONS

STATION/POSITION TEMP    WIND        PRES    VSBY  WAVE
                 AIR SEA DIR/SP/G                  HT/PER
                 (F)     (DEG/KT/KT) (MB)    (MI)  (FT/S)
CALUMET HARBOR    57      40/  6/  7 1011.7R
MICHIGAN CITY     57     270/  2/  2   N/A
BURNS HARBOR      58      50/  5/  6 1012.9R
SOUTH LAKE BUOY   45 45   30/  8/ 10 1011.5          1/ 4
4 MI NW BRIDGMAN  53 56  240/  4/  6 1012.8R         2/ 4
MICHIGAN CITY     54 53   CALM  /  2   N/A           1/ 5

$$
&&




USA.gov is the U.S. government's official web portal to all federal, state and local government web resources and services.